Burbank, CA

3:01 PM PDT on September 23, 2017 (GMT -0700)
Burbank-Glendale-Pasadena

Weather History for KBUR - September, 2015

Change the Weather History Date:

Friday, September 11, 2015

  Actual Average Record
Temperature  
Mean Temperature 88 °F 74 °F  
Max Temperature 97 °F 87 °F 109 °F (1983)
Min Temperature 78 °F 61 °F 47 °F (1978)
Degree Days  
Heating Degree Days 0 0  
Month to date heating degree days 0 0  
Since 1 July heating degree days 0 0  
Cooling Degree Days 23 9  
Month to date cooling degree days 175 107  
Year to date cooling degree days 1526 989  
Growing Degree Days 38 (Base 50)    
Moisture  
Dew Point 60 °F    
Average Humidity 45    
Maximum Humidity 58    
Minimum Humidity 31    
Precipitation  
Precipitation 0.00 in 0.01 in 0.66 in (1976)
Month to date precipitation 0.00 0.03  
Year to date precipitation 3.41 12.67  
Sea Level Pressure  
Sea Level Pressure 29.85 in    
Wind  
Wind Speed 5 mph (SSE)    
Max Wind Speed 14 mph    
Max Gust Speed 17 mph    
Visibility 10 miles    
Events      
T = Trace of Precipitation, MM = Missing Value Source: NWS Daily Summary

Daily Weather History Graph

Daily Weather History Graph

Search for Another Location

Airport or City:

Trip Planner

Search our weather history database for the weather conditions in past years. The results will help you decide how hot, cold, wet, or windy it might be!

Date:

Astronomy

Sep. 11, 2015 Rise Set
Actual Time 6:33 AM PDT 7:05 PM PDT
Civil Twilight 6:08 AM PDT 7:31 PM PDT
Nautical Twilight 5:38 AM PDT 8:00 PM PDT
Astronomical Twilight 5:08 AM PDT 8:30 PM PDT
Moon 5:08 AM PDT (9/11) 6:16 PM PDT (9/11)
Length of Visible Light 13h 22m
Length of Day
12h 32m
Waning Crescent, 2% of the Moon is Illuminated
Sep 11
Waning Crescent
Sep 12
New
Sep 21
First Quarter
Sep 27
Full
Oct 4
Last Quarter

Hourly Weather History & Observations

Time (PDT) Temp. Heat Index Dew Point Humidity Pressure Visibility Wind Dir Wind Speed Gust Speed Precip Events Conditions
12:53 AM 82.0 °F 82.1 °F 59.0 °F 45% 29.83 in 10.0 mi SSE 3.5 mph - N/A   Clear
1:53 AM 81.0 °F 81.3 °F 59.0 °F 47% 29.83 in 10.0 mi East 4.6 mph - N/A   Clear
2:53 AM 81.0 °F 81.3 °F 59.0 °F 47% 29.83 in 10.0 mi Calm Calm - N/A   Clear
3:53 AM 80.1 °F 81.1 °F 61.0 °F 52% 29.82 in 10.0 mi Calm Calm - N/A   Clear
4:53 AM 80.1 °F 81.1 °F 61.0 °F 52% 29.83 in 10.0 mi Calm Calm - N/A   Clear
5:53 AM 79.0 °F - 62.1 °F 56% 29.83 in 10.0 mi Calm Calm - N/A   Clear
6:53 AM 79.0 °F - 61.0 °F 54% 29.86 in 10.0 mi Calm Calm - N/A   Clear
7:53 AM 82.0 °F 82.7 °F 61.0 °F 49% 29.87 in 10.0 mi Calm Calm - N/A   Clear
8:53 AM 84.9 °F 85.4 °F 62.1 °F 46% 29.87 in 10.0 mi Calm Calm - N/A   Clear
9:53 AM 89.1 °F 90.0 °F 63.0 °F 42% 29.88 in 10.0 mi Calm Calm - N/A   Clear
10:53 AM 91.9 °F 92.9 °F 63.0 °F 38% 29.87 in 10.0 mi South 6.9 mph - N/A   Clear
11:53 AM 95.0 °F 96.0 °F 63.0 °F 34% 29.86 in 10.0 mi South 9.2 mph - N/A   Clear
12:53 PM 96.1 °F 97.3 °F 63.0 °F 33% 29.84 in 10.0 mi South 9.2 mph - N/A   Clear
1:53 PM 96.1 °F 96.9 °F 62.1 °F 32% 29.83 in 10.0 mi South 12.7 mph - N/A   Clear
2:53 PM 93.9 °F 94.0 °F 61.0 °F 33% 29.83 in 10.0 mi SSE 10.4 mph - N/A   Clear
3:53 PM 95.0 °F 95.2 °F 61.0 °F 32% 29.82 in 10.0 mi South 9.2 mph - N/A   Clear
4:53 PM 93.0 °F 92.7 °F 60.1 °F 33% 29.82 in 10.0 mi SSE 10.4 mph - N/A   Clear
5:53 PM 90.0 °F 89.7 °F 60.1 °F 37% 29.83 in 10.0 mi South 10.4 mph - N/A   Clear
6:53 PM 86.0 °F 85.0 °F 57.9 °F 38% 29.86 in 10.0 mi South 9.2 mph - N/A   Clear
7:53 PM 82.9 °F 82.6 °F 57.9 °F 42% 29.88 in 10.0 mi SE 8.1 mph - N/A   Clear
8:53 PM 84.0 °F 83.3 °F 57.0 °F 40% 29.90 in 10.0 mi ESE 6.9 mph - N/A   Clear
9:53 PM 82.9 °F 82.6 °F 57.9 °F 42% 29.91 in 10.0 mi ESE 4.6 mph - N/A   Clear
10:53 PM 81.0 °F 81.1 °F 57.9 °F 45% 29.91 in 10.0 mi SSE 4.6 mph - N/A   Clear
11:53 PM 81.0 °F 81.0 °F 57.0 °F 44% 29.89 in 10.0 mi SE 4.6 mph - N/A   Clear